Location: Hungerford
(51.4167°N, 1.5167°W)
Time: 14:15:13
(UTC+00:00)

Cosmos 1937 Rocket - Visible Passes

Search period start: 18 January 2021 00:00
Search period end: 28 January 2021 00:00
Orbit: 745 x 781 km, 74.0° (Epoch: 18 January)

Date Brightness Start Highest point End Pass type
(mag) Time Alt. Az. Time Alt. Az. Time Alt. Az.
18 Jan 5.9 03:51:54 17° NNE 03:52:31 17° NE 03:55:59 10° E visible
18 Jan 3.7 05:32:05 23° NNW 05:35:30 71° ENE 05:40:45 10° SSE visible
18 Jan 4.8 07:13:04 10° NW 07:16:55 21° W 07:20:43 10° SW visible
19 Jan 6.4 03:14:36 12° NE 03:14:36 12° NE 03:15:49 10° ENE visible
19 Jan 4.4 04:54:48 30° N 04:56:56 46° ENE 05:01:59 10° SE visible
19 Jan 4.2 06:35:00 15° NW 06:38:45 33° WSW 06:43:23 10° SSW visible
20 Jan 5.1 04:17:36 30° NE 04:18:15 31° NE 04:22:55 10° ESE visible
20 Jan 3.6 05:57:48 27° NW 06:00:29 52° WSW 06:05:34 10° S visible
20 Jan 5.5 18:55:51 10° SSE 18:56:46 14° SSE 18:56:46 14° SSE visible
20 Jan 6.2 20:36:49 10° SW 20:37:01 11° SW 20:37:01 11° SW visible
21 Jan 5.8 03:40:30 21° ENE 03:40:30 21° ENE 03:43:30 10° E visible
21 Jan 3.4 05:20:43 51° NNW 05:22:07 83° WSW 05:27:22 10° SSE visible
21 Jan 5.1 07:00:56 11° WNW 07:03:13 14° W 07:05:54 10° SW visible
21 Jan 5.2 18:18:44 10° SE 18:20:19 15° ESE 18:20:19 15° ESE visible
21 Jan 5.0 19:58:09 10° SSW 20:00:34 28° SSW 20:00:34 28° SSW visible
22 Jan 6.5 03:03:31 11° ENE 03:03:31 11° ENE 03:03:43 10° ENE visible
22 Jan 3.8 04:43:44 63° ENE 04:43:44 63° ENE 04:48:50 10° SE visible
22 Jan 4.6 06:23:57 21° WNW 06:25:08 23° W 06:29:11 10° SSW visible
22 Jan 5.4 17:43:11 10° E 17:43:49 10° E 17:43:49 10° E visible
22 Jan 3.8 19:19:49 10° S 19:24:03 53° SSE 19:24:03 53° SSE visible
22 Jan 6.1 21:02:59 10° WSW 21:04:18 16° W 21:04:18 16° W visible
23 Jan 5.1 04:06:53 31° E 04:06:53 31° E 04:09:59 10° SE visible
23 Jan 4.0 05:47:06 37° WSW 05:47:06 37° WSW 05:51:43 10° S visible
23 Jan 3.9 18:41:50 10° S 18:46:45 40° ESE 18:47:28 38° E visible
23 Jan 4.9 20:23:46 10° SW 20:27:43 35° W 20:27:43 35° W visible
24 Jan 6.2 03:30:08 13° ESE 03:30:08 13° ESE 03:30:49 10° ESE visible
24 Jan 4.2 05:10:23 39° SSW 05:10:23 39° SSW 05:13:47 10° S visible
24 Jan 4.5 18:04:16 10° SSE 18:08:32 25° E 18:10:47 19° ENE visible
24 Jan 4.0 19:44:53 10° SW 19:50:08 59° WNW 19:51:02 52° NNW visible
24 Jan 6.4 21:30:13 10° WNW 21:31:15 13° WNW 21:31:15 13° WNW visible
25 Jan 5.3 04:33:45 22° SSE 04:33:45 22° SSE 04:35:30 10° SSE visible
25 Jan 5.5 06:14:00 12° SW 06:14:00 12° SW 06:14:35 10° SW visible
25 Jan 5.1 17:27:22 10° SE 17:30:26 16° E 17:33:31 10° ENE visible
25 Jan 3.4 19:06:18 10° SSW 19:11:38 89° E 19:14:13 32° NNE visible
25 Jan 5.7 20:50:22 10° W 20:54:22 21° NW 20:54:26 21° NW visible
26 Jan 5.7 05:37:28 11° SSW 05:37:28 11° SSW 05:37:37 10° SSW visible
26 Jan 3.6 18:28:02 10° S 18:33:14 57° ESE 18:37:18 17° NE visible
26 Jan 5.2 20:10:54 10° WSW 20:15:32 30° NW 20:17:31 23° NNW visible
27 Jan 4.2 17:50:09 10° SSE 17:54:57 35° ESE 17:59:46 10° NE visible
27 Jan 4.6 19:31:46 10° SW 19:36:51 43° WNW 19:40:28 18° N visible
27 Jan 6.3 21:18:13 10° NW 21:20:19 12° NNW 21:20:40 12° NNW visible
